Weather in Vozdvizhenye

Russia / Ivanovo Oblast     57°29′56″N   42°00′57″E
temp.,
°C
wind,
m/s
gust,
m/s
humid.,
%
clouds,
%
prec.,
mm/h
press.,
hPa
HPBL,
m
25 february, thu
thu2500:00−16s41094100 0.4 1028457
03:00−16s51095100 1.4 1025470
06:00−16s51195100 1.9 1018500
09:00−15s4995100 4.3 1015487
12:00−12sse4793100 1.3 1012383
15:00−9se2392100 1.5 1011312
18:00−10ese239697 0.3 101175
21:00−11se229797 0.4 101271
26 february, fri
fri2600:00−10ese2396100 0.4 1011106
03:00−10ese3596100 0.9 1012157
06:00−11se3695100 0.4 1009185
09:00−9ese4795100 1.6 1007199
12:00−8se4895100 3.0 1003254
15:00−4se4897100 7.8 999249
18:00+2w413100100 6.5 996579
21:000w5119896 6.6 995577
27 february, sat
sat2700:000w3898100 0.4 993399
03:000w4898100 1.4 994478
06:00−1wnw4896100 0.5 994354
09:00−9n489399 1.1 998570
12:00−9n4888100 0.2 1001626
15:00−8n4888100 0.3 1004649
18:00−10n3893100 0.1 1006427
21:00−13n3796100 0.1 1009190
28 february, sun
sun2800:00−16nnw249662 0.0 1010101
03:00−17nnw259631 0.0 1013113
06:00−18nnw25960 0.0 1014115
09:00−15n369323 0.0 1015266
12:00−11nnw378988 0.1 1016478
15:00−8nnw478994 0.1 1017620
18:00−10nnw3993100 0.1 1018364
21:00−13n239568 0.1 102132
1 march, mon
mon100:00−13n229692 0.1 102321
03:00−13nnw119793 0.1 102420
06:00−14wnw229887 0.0 102520
09:00−10w239577 0.0 1025106
12:00−5wsw359267 0.0 1024306
15:00−3wsw489278 0.0 1021452
18:00−2wsw41095100 0.1 1019629
21:00−1wsw51294100 0.3 1015594